Flag for Ireland Weather past 2 weeks in Galway, Ireland

Now
48 °F

Broken clouds.


Feels Like: 39 °F
Forecast: 44 / 51 °F
Wind: 31 mph from West

Location: Shannon Airport

Current Time: Mar 31, 2015 at 1:06:58 PM

Latest Report: Mar 31, 2015 at 12:30 PM


Visibility: N/A

Pressure: 30.04 "Hg

Humidity: 58%

Dew point: 34 °F

Location of GalwayLocation

Historic Weather in Galway — Graph

°F

Galway temperature yesterday

Maximum temperature yesterday: 54 °F (at 9:00 PM)
Minimum temperature yesterday: 41 °F (at 4:00 AM)
Average temperature yesterday: 47 °F

Past Weeks' High & Low Weather Summary

 TemperatureHumidityPressure
High55 °F (Mar 19, 3:30 PM)100% (Mar 17, 7:30 AM)30.60 "Hg (Mar 17, 7:30 AM)
Low30 °F (Mar 25, 5:00 AM)47% (Mar 17, 4:30 PM)29.36 "Hg (Mar 29, 6:30 AM)
Average45 °F81%30.07 "Hg
* Reported Mar 16 11:00 AM — Mar 31 12:00 Noon, Galway, Weather by CustomWeather, © 2015

Note: Actual official high and low records may vary slightly from our data, if they occured in-between our weather recording intervals... More about our weather records

Advertising

Galway weather history for previous 24 hours

 ConditionsComfort  
Time TempWeatherWind HumidityBarometerVisibility
12:00 PM
Tue, Mar 31
48 °FScattered clouds.28 mph62%30.04 "HgN/A
11:30 AM46 °FBroken clouds.30 mph66%30.01 "HgN/A
11:00 AM45 °FScattered clouds.32 mph76%30.01 "HgN/A
10:30 AM46 °FPassing clouds.26 mph71%29.98 "HgN/A
10:00 AM46 °FScattered clouds.28 mph66%29.98 "HgN/A
9:30 AM46 °FScattered clouds.26 mph66%29.95 "HgN/A
9:00 AM45 °FSprinkles. Scattered clouds.21 mph81%29.95 "Hg3 mi
8:30 AM45 °FSprinkles. Scattered clouds.24 mph81%29.92 "HgN/A
8:00 AM43 °FPassing clouds.25 mph81%29.92 "HgN/A
7:30 AM45 °FPassing clouds.24 mph76%29.89 "HgN/A
7:00 AM45 °FPassing clouds.14 mph76%29.86 "HgN/A
6:30 AM45 °FPassing clouds.20 mph81%29.83 "HgN/A
6:00 AM45 °FPassing clouds.25 mph81%29.83 "HgN/A
5:30 AM45 °FPassing clouds.23 mph81%29.80 "HgN/A
5:00 AM45 °FPassing clouds.24 mph81%29.77 "HgN/A
4:30 AM45 °FPartly cloudy.25 mph87%29.74 "HgN/A
4:00 AM46 °FLight rain. Passing clouds.35 mph82%29.71 "HgN/A
3:30 AM48 °FPassing clouds.31 mph82%29.68 "HgN/A
3:00 AM48 °FLight rain. Passing clouds.32 mph76%29.65 "HgN/A
2:30 AM48 °FPassing clouds.28 mph82%29.62 "HgN/A
2:00 AM46 °FLight rain. Partly cloudy.36 mph87%29.62 "HgN/A
1:30 AM48 °FPassing clouds.35 mph71%29.59 "HgN/A
1:00 AM48 °FPassing clouds.33 mph71%29.59 "HgN/A
12:30 AM48 °FPassing clouds.40 mph76%29.56 "HgN/A
12:00 AM48 °FPassing clouds.35 mph82%29.56 "HgN/A
11:30 PM
Mon, Mar 30
50 °FPassing clouds.37 mph76%29.53 "Hg6 mi
11:00 PM50 °FLight rain. Partly cloudy.33 mph88%29.53 "Hg6 mi
10:30 PM50 °FLight rain. Passing clouds.37 mph88%29.50 "Hg6 mi
10:00 PM52 °FLight rain. Partly cloudy.43 mph88%29.50 "Hg6 mi
9:30 PM54 °FLight rain. Partly cloudy.40 mph88%29.47 "Hg5 mi
9:00 PM54 °FPartly sunny.43 mph88%29.47 "Hg5 mi
8:30 PM52 °FDrizzle. Partly sunny.41 mph94%29.50 "Hg3 mi
8:00 PM52 °FDrizzle. Broken clouds.35 mph94%29.50 "HgN/A
7:30 PM52 °FDrizzle. Cloudy.32 mph94%29.53 "Hg2 mi
7:00 PM52 °FDrizzle. Cloudy.30 mph94%29.53 "Hg2 mi
6:30 PM52 °FDrizzle. Cloudy.35 mph94%29.56 "Hg2 mi
6:00 PM52 °FDrizzle. Broken clouds.31 mph94%29.56 "Hg2 mi
5:30 PM52 °FDrizzle. Partly sunny.33 mph94%29.56 "HgN/A
5:00 PM52 °FDrizzle. Partly sunny.33 mph94%29.59 "Hg3 mi
4:30 PM52 °FDrizzle. Partly sunny.35 mph100%29.59 "Hg2 mi
4:00 PM52 °FDrizzle. Partly sunny.36 mph100%29.59 "Hg3 mi
3:30 PM52 °FDrizzle. Partly sunny.32 mph100%29.59 "Hg4 mi
3:00 PM52 °FDrizzle. Broken clouds.31 mph100%29.62 "Hg2 mi
2:30 PM52 °FDrizzle. Broken clouds.30 mph100%29.62 "Hg2 mi
2:00 PM52 °FDrizzle. Broken clouds.26 mph94%29.65 "Hg2 mi
1:30 PM50 °FLight rain. Mostly cloudy.13 mph94%29.68 "Hg6 mi
1:00 PM48 °FLight rain. Broken clouds.12 mph94%29.68 "Hg4 mi
Weather by CustomWeather, © 2015

See weather overviewHow to use our weather pages